Location: Newark
(52.2090°N, 4.1550°W)
Time: 01:28:54
(UTC+00:00)

Transit 4A - Pass Details

Date: 31 October 2019
Orbit: 868 x 976 km, 66.8° (Epoch: 14 November)

Event Time Altitude Azimuth Distance (km) Brightness Sun altitude
Exits shadow 04:06:21 53° 335° (NNW) 1,152 8.2 -28.3°
Drops below altitude 10° 04:11:53 10° 35° (NE) 2,631 10.8 -27.5°
Sets 04:14:27 0° 40° (NE) 3,560 11.7 -27.1°
